Kodiak, AK

8:59 PM AKST on February 07, 2016 (GMT -0900)
Kodiak

Weather History for PADQ - December, 2013

Change the Weather History Date:

Thursday, December 26, 2013

  Actual Average Record
Temperature  
Mean Temperature 27 °F 31 °F  
Max Temperature 32 °F 36 °F 45 °F (1982)
Min Temperature 21 °F 26 °F 3 °F (1957)
Degree Days  
Heating Degree Days 38 34  
Month to date heating degree days 891 879  
Since 1 July heating degree days 3298 3671  
Cooling Degree Days 0    
Month to date cooling degree days 0  
Year to date cooling degree days 6  
Moisture  
Dew Point 24 °F    
Average Humidity 0    
Maximum Humidity 0    
Minimum Humidity 0    
Precipitation  
Precipitation 0.00 in 0.27 in 2.32 in (1993)
Month to date precipitation 2.29 7.34  
Year to date precipitation 63.30 76.61  
Snow  
Snow 0.00 in 0.40 in 2.40 in (1953)
Month to date snowfall 11.4 11.9  
Snow Depth 3.00 in    
Sea Level Pressure  
Sea Level Pressure 29.70 in    
Wind  
Wind Speed 6 mph (West)    
Max Wind Speed 20 mph    
Max Gust Speed 25 mph    
Visibility 10 miles    
Events      
T = Trace of Precipitation, MM = Missing Value Source: NWS Daily Summary

Daily Weather History Graph

Daily Weather History Graph

Search for Another Location

Airport or City:

Trip Planner

Search our weather history database for the weather conditions in past years. The results will help you decide how hot, cold, wet, or windy it might be!

Date:

Astronomy

Dec. 26, 2013 Rise Set
Actual Time 9:54 AM AKST 4:27 PM AKST
Civil Twilight 9:02 AM AKST 5:18 PM AKST
Nautical Twilight 8:10 AM AKST 6:10 PM AKST
Astronomical Twilight 7:22 AM AKST 6:58 PM AKST
Moon 2:34 AM AKST (12/26) 1:02 PM AKST (12/26)
Length of Visible Light 8h 15m
Length of Day
6h 33m
Last Quarter, 37% of the Moon is Illuminated
Dec 26
Last Quarter
Jan 1
New
Jan 7
First Quarter
Jan 15
Full
Jan 23
Last Quarter

Hourly Weather History & Observations

Time (AKST) Temp. Windchill Dew Point Humidity Pressure Visibility Wind Dir Wind Speed Gust Speed Precip Events Conditions
12:53 AM 30.9 °F 19.8 °F 19.9 °F 64% 29.67 in 10.0 mi WNW 16.1 mph 23.0 mph N/A   Scattered Clouds
1:53 AM 30.9 °F 21.7 °F 21.0 °F 67% 29.66 in 10.0 mi WNW 11.5 mph - N/A   Overcast
3:53 AM 30.0 °F 20.5 °F 21.0 °F 69% 29.66 in 10.0 mi NW 11.5 mph - N/A   Scattered Clouds
4:53 AM 30.0 °F 21.1 °F 21.9 °F 72% 29.67 in 10.0 mi West 10.4 mph 20.7 mph N/A   Mostly Cloudy
5:53 AM 28.0 °F 21.7 °F 21.0 °F 75% 29.67 in 10.0 mi WNW 5.8 mph - N/A   Partly Cloudy
6:53 AM 30.0 °F 24.1 °F 23.0 °F 75% 29.67 in 10.0 mi NW 5.8 mph - N/A   Overcast
7:53 AM 28.0 °F 21.7 °F 23.0 °F 81% 29.68 in 10.0 mi SW 5.8 mph - N/A   Overcast
8:53 AM 27.0 °F - 23.0 °F 85% 29.68 in 10.0 mi Calm Calm - N/A   Scattered Clouds
9:53 AM 25.0 °F 20.7 °F 21.9 °F 88% 29.70 in 10.0 mi WSW 3.5 mph - N/A   Mostly Cloudy
10:53 AM 27.0 °F - 24.1 °F 89% 29.70 in 10.0 mi Calm Calm - N/A   Mostly Cloudy
11:53 AM 28.0 °F - 24.1 °F 85% 29.71 in 10.0 mi Calm Calm - N/A   Mostly Cloudy
12:53 PM 28.9 °F 25.2 °F 25.0 °F 85% 29.71 in 10.0 mi West 3.5 mph - N/A   Mostly Cloudy
1:53 PM 30.9 °F - 25.0 °F 79% 29.70 in 10.0 mi Calm Calm - N/A   Mostly Cloudy
2:53 PM 30.0 °F - 26.1 °F 85% 29.70 in 10.0 mi Calm Calm - N/A   Mostly Cloudy
3:53 PM 30.0 °F 26.5 °F 26.1 °F 85% 29.71 in 10.0 mi West 3.5 mph - N/A   Mostly Cloudy
4:53 PM 28.9 °F 23.9 °F 26.1 °F 89% 29.71 in 10.0 mi West 4.6 mph - N/A   Overcast
5:53 PM 28.9 °F 23.9 °F 26.1 °F 89% 29.71 in 10.0 mi WNW 4.6 mph - N/A   Overcast
6:53 PM 28.9 °F 23.9 °F 26.1 °F 89% 29.71 in 10.0 mi West 4.6 mph - N/A   Overcast
7:53 PM 28.0 °F 21.7 °F 26.1 °F 92% 29.72 in 10.0 mi West 5.8 mph - N/A   Overcast
8:53 PM 26.1 °F 20.5 °F 24.1 °F 92% 29.72 in 10.0 mi West 4.6 mph - N/A   Mostly Cloudy
9:53 PM 24.1 °F 17.0 °F 23.0 °F 96% 29.73 in 10.0 mi West 5.8 mph - N/A   Scattered Clouds
10:53 PM 24.1 °F 16.0 °F 21.9 °F 91% 29.73 in 10.0 mi West 6.9 mph - N/A   Clear
11:53 PM 24.1 °F 16.0 °F 21.0 °F 88% 29.74 in 10.0 mi West 6.9 mph - N/A   Scattered Clouds